Regional Weather Roundup
Issued by NWS

Home | Current Version | Previous Version | Graphics & Text | Print | Product List | Glossary On
Versions: 1 2 3 4 5 6 7 8 9 10 11 12 13 14 15 16 17 18 19 20 21 22 23 24 25 26 27 28 29 30 31 32 33 34 35 36 37 38 39 40 41 42 43 44 45 46 47 48 49 50
000
ASUS43 KLOT 310458
RWRIL

ILLINOIS REGIONAL WEATHER ROUNDUP
NATIONAL WEATHER SERVICE CHICAGO/ROMEOVILLE IL
1200 AM CDT SUN AUG 31 2014

NOTE: "FAIR" INDICATES FEW OR NO CLOUDS BELOW 12,000 FEET WITH NO
SIGNIFICANT WEATHER AND/OR OBSTRUCTIONS TO VISIBILITY.

* THESE STATIONS ARE NOT UNDER NWS QUALITY CONTROL. THEY ALSO MAY NOT
  REPORT WEATHER SUCH AS PRECIPITATION OR FOG.

ILZ001-002-007-009-015-016-024-310600-
NORTHWEST ILLINOIS

CITY           SKY/WX    TMP DP  RH WIND       PRES   REMARKS
MOLINE         CLEAR     67  66  97 CALM      29.90F
$$

ILZ003-004-008-010-011-017-018-310600-
NORTH CENTRAL ILLINOIS

CITY           SKY/WX    TMP DP  RH WIND       PRES   REMARKS
ROCKFORD       NOT AVBL
$$

ILZ005-006-012>014-019>023-310600-
NORTHEAST ILLINOIS

CITY           SKY/WX    TMP DP  RH WIND       PRES   REMARKS
CHICAGO-OHARE  MOCLDY    73  64  73 CALM      29.92R
CHICAGO-MIDWAY MOCLDY    75  70  84 SW9       29.92R
AURORA         PTCLDY    67  64  90 CALM      29.92S
WAUKEGAN       PTCLDY    68  64  87 SW5       29.90R
DUPAGE AIRPORT PTCLDY    69  65  86 W3        29.92R
WHEELING       PTCLDY    73  65  75 S3        29.92R
NORTHERLY ISL    N/A     75  68  78 S5          N/A
$$

LMZ740>746-310600-
SOUTHERN LAKE MICHIGAN

STATION/POSITION SKY/WX   TEMP    WIND        PRES    VSBY  WAVE
                          AIR SEA DIR/SP/G                  HT/PER
                          (F)     (DEG/KT/KT) (MB)    (MI)  (FT/S)
SOUTHERN BUOY              71 69  220/  8/  8 1012.0R         1/ 4
WAUKEGAN HARBOR            73     250/  6/  8   N/A
HARRISON CRIB              77     240/  7/  8   N/A
BURNHAM HARBOR             75     190/  6/  6   N/A
CALUMET HARBOR             74     210/  5/  7 1012.1R
MICHIGAN CITY              72     170/ 12/ 16   N/A
MICHIGAN CITY 6N           72 72  200/ 10/ 14   N/A           1/ 3
ST. JOSEPH                 72 71  190/  6/ 10   N/A           2/ 4
$$

ILZ025>027-034>036-040-047-049-050-058-095>099-310600-
WEST-CENTRAL ILLINOIS

CITY           SKY/WX    TMP DP  RH WIND       PRES   REMARKS
$$

ILZ028>032-037-038-041>044-048-051>054-059>061-310600-
CENTRAL ILLINOIS

CITY           SKY/WX    TMP DP  RH WIND       PRES   REMARKS
PEORIA         NOT AVBL
SPRINGFIELD    PTCLDY    75  71  87 S6        29.93S
TAYLORVILLE    NOT AVBL
$$

ILZ033-039-045-046-055>057-062-063-310600-
EAST-CENTRAL ILLINOIS

CITY           SKY/WX    TMP DP  RH WIND       PRES   REMARKS
$$

ILZ079-100>102-310600-
SOUTHWEST ILLINOIS

CITY           SKY/WX    TMP DP  RH WIND       PRES   REMARKS
$$

ILZ064>066-069>071-074>076-080>082-084>086-088>090-092>094-310600-
SOUTH-CENTRAL ILLINOIS

CITY           SKY/WX    TMP DP  RH WIND       PRES   REMARKS
CARBONDALE     CLOUDY    72  70  93 S6        29.98F
$$

ILZ067-068-072-073-078-083-087-091-310600-
SOUTHEAST ILLINOIS

CITY           SKY/WX    TMP DP  RH WIND       PRES   REMARKS
$$

ABBREVIATIONS USED IN REMARKS
   TC - TEMPERATURE IN CELSIUS
  WCI - WIND CHILL INDEX
   HX - HEAT INDEX
  VSB - VISIBILITY
$$




USA.gov is the U.S. government's official web portal to all federal, state and local government web resources and services.